9W2KHE-13 Weather Reports


time (UTC)temp
C
wind
direction
speed
KPH
gust
KPH
rain 1hr
cm
rain 24hr
cm
rain mn
cm
humidity
%
barometer
mb
20260504204525 28 135 0.0 0.0 0.00 0.00 0.00 71 1010.6
20260504203524 28 135 0.0 0.0 0.00 0.00 0.00 71 1010.5
20260504202020 28 135 0.0 0.0 0.00 0.00 0.00 71 1010.7
20260504201519 28 135 0.0 0.0 0.00 0.00 0.00 71 1010.6
20260504200518 28 135 0.0 0.0 0.00 0.00 0.00 71 1010.7
20260504195515 28 135 0.0 0.0 0.00 0.00 0.00 71 1010.7
20260504195015 28 135 0.0 0.0 0.00 0.00 0.00 71 1010.8
20260504194513 28 135 0.0 0.0 0.00 0.00 0.00 71 1010.7
20260504194012 28 135 0.0 0.0 0.00 0.00 0.00 71 1010.7
20260504193523 28 135 0.0 0.0 0.00 0.00 0.00 70 1010.9
20260504193010 28 135 0.0 0.0 0.00 0.00 0.00 70 1010.9
20260504192509 28 135 0.0 0.0 0.00 0.00 0.00 70 1010.9
20260504192008 28 135 0.0 0.0 0.00 0.00 0.00 70 1010.8
20260504191507 28 135 0.0 0.0 0.00 0.00 0.00 70 1011.0
20260504185505 29 135 0.0 0.0 0.00 0.00 0.00 69 1011.1
20260504185004 29 135 0.0 0.0 0.00 0.00 0.00 69 1011.0
20260504184504 29 135 0.0 0.0 0.00 0.00 0.00 69 1011.0
20260504184002 29 135 0.0 0.0 0.00 0.00 0.00 69 1011.1
20260504182959 29 135 0.0 0.0 0.00 0.00 0.00 69 1011.2
20260504182459 29 135 0.0 0.0 0.00 0.00 0.00 69 1011.3
20260504181958 29 135 0.0 0.0 0.00 0.00 0.00 69 1011.5
20260504181457 29 135 0.0 0.0 0.00 0.00 0.00 69 1011.6
20260504180957 29 139 0.0 0.0 0.00 0.00 0.00 69 1011.5
20260504180454 29 135 0.0 0.0 0.00 0.00 0.00 69 1011.7
20260504175953 29 135 0.0 0.0 0.00 0.00 0.00 69 1011.8
20260504175453 29 135 0.0 0.0 0.00 0.00 0.00 69 1011.9
20260504172947 29 135 0.0 0.0 0.00 0.00 0.00 69 1012.2
20260504172446 29 135 0.0 0.0 0.00 0.00 0.00 69 1012.3
20260504171947 29 135 0.0 0.0 0.00 0.00 0.00 69 1012.4
20260504171445 29 135 0.0 0.0 0.00 0.00 0.00 69 1012.5
20260504170943 29 135 0.0 0.0 0.00 0.00 0.00 68 1012.4
20260504160432 30 135 0.0 0.0 0.00 0.00 0.00 68 1012.8
20260504150917 30 135 0.0 0.0 0.00 0.00 0.00 68 1012.4
20260504150417 30 135 0.0 0.0 0.00 0.00 0.00 68 1012.4
20260504140906 30 135 0.0 0.0 0.00 0.00 0.00 67 1011.9
20260504130351 30 135 0.0 0.0 0.00 0.00 0.00 66 1011.3
20260504110332 30 146 0.0 0.0 0.00 0.00 0.00 64 1010.4
20260504081752 31 135 0.0 0.0 0.00 0.00 0.00 60 1009.7
20260504081258 31 135 0.0 0.0 0.00 0.00 0.00 60 1009.7
20260504080756 32 157 0.0 0.0 0.00 0.00 0.00 60 1009.9
20260504080248 32 135 0.0 0.0 0.00 0.00 0.00 61 1010.3
20260504070236 32 135 0.0 0.0 0.00 0.00 0.00 59 1010.5
20260504050711 33 180 0.0 0.0 0.00 0.00 0.00 56 1012.0
20260504045712 33 146 0.0 0.0 0.00 0.00 0.00 56 1012.1
20260504045215 33 139 0.0 0.0 0.00 0.00 0.00 57 1012.2
20260504044710 33 136 0.0 0.0 0.00 0.00 0.00 58 1012.3
20260504044206 33 157 0.0 0.0 0.00 0.00 0.00 58 1012.4
20260504041701 32 148 0.0 0.0 0.00 0.00 0.00 60 1012.8
20260504041202 32 135 0.0 0.0 0.00 0.00 0.00 60 1012.8
20260504040659 32 148 0.0 0.0 0.00 0.00 0.00 61 1012.9
20260504040158 32 146 0.0 0.0 0.00 0.00 0.00 61 1013.0
20260504034655 31 148 0.0 0.0 0.00 0.00 0.00 63 1013.1
20260504033653 31 135 0.0 0.0 0.00 0.00 0.00 65 1013.0
20260504033154 31 152 0.0 0.0 0.00 0.00 0.00 65 1013.1
20260504032650 31 143 0.0 0.0 0.00 0.00 0.00 65 1013.1
20260504032149 31 137 0.0 0.0 0.00 0.00 0.00 66 1013.2
20260504031648 31 135 0.0 0.0 0.00 0.00 0.00 66 1013.2
20260504031148 31 135 0.0 0.0 0.00 0.00 0.00 67 1013.3
20260504030145 30 135 0.0 0.0 0.00 0.00 0.00 67 1013.4
20260504025644 30 135 0.0 0.0 0.00 0.00 0.00 68 1013.5
20260504025143 30 135 0.0 0.0 0.00 0.00 0.00 68 1013.4
20260504024642 30 135 0.0 0.0 0.00 0.00 0.00 68 1013.4
20260504023640 30 135 0.0 0.0 0.00 0.00 0.00 69 1013.5
20260504023139 30 135 0.0 0.0 0.00 0.00 0.00 69 1013.5
20260504022137 30 135 0.0 0.0 0.00 0.00 0.00 69 1013.5
20260504021637 29 157 0.0 0.0 0.00 0.00 0.00 70 1013.5
20260504021135 29 148 0.0 0.0 0.00 0.00 0.00 70 1013.5
20260504015632 29 135 0.0 0.0 0.00 0.00 0.00 70 1013.5
20260504014128 28 142 0.0 0.0 0.00 0.00 0.00 70 1013.5
20260504013630 28 135 0.0 0.0 0.00 0.00 0.00 70 1013.5
20260504013127 28 141 0.0 0.0 0.00 0.00 0.00 71 1013.4
20260504012627 28 135 0.0 0.0 0.00 0.00 0.00 71 1013.4
20260504012125 28 135 0.0 0.0 0.00 0.00 0.00 71 1013.3
20260504011623 28 136 0.0 0.0 0.00 0.00 0.00 71 1013.2
20260504011122 28 157 0.0 0.0 0.00 0.00 0.00 71 1013.2
20260504010621 28 135 0.0 0.0 0.00 0.00 0.00 71 1013.0
20260504010121 28 157 0.0 0.0 0.00 0.00 0.00 71 1013.1
20260504005619 28 135 0.0 0.0 0.00 0.00 0.00 71 1012.9
20260504004617 28 135 0.0 0.0 0.00 0.00 0.00 71 1012.8
20260504001611 28 157 0.0 0.0 0.00 0.00 0.00 71 1012.3
20260504001110 28 135 0.0 0.0 0.00 0.00 0.00 71 1012.3
20260503235606 28 135 0.0 0.0 0.00 0.00 0.00 71 1012.2
20260503234606 28 135 0.0 0.0 0.00 0.00 0.00 71 1012.1
20260503231057 28 135 0.0 0.0 0.00 0.00 0.00 71 1011.6
20260503230556 28 135 0.0 0.0 0.00 0.00 0.00 71 1011.5
20260503230055 28 135 0.0 0.0 0.00 0.00 0.00 71 1011.5
20260503225554 28 135 0.0 0.0 0.00 0.00 0.00 71 1011.6
20260503224552 28 135 0.0 0.0 0.00 0.00 0.00 71 1011.5
20260503223550 28 135 0.0 0.0 0.00 0.00 0.00 71 1011.4
20260503223055 28 135 0.0 0.0 0.00 0.00 0.00 71 1011.3
20260503222548 28 135 0.0 0.0 0.00 0.00 0.00 71 1011.2
20260503222046 28 135 0.0 0.0 0.00 0.00 0.00 71 1011.1
20260503221045 28 135 0.0 0.0 0.00 0.00 0.00 71 1011.1
20260503220545 28 135 0.0 0.0 0.00 0.00 0.00 71 1011.1
20260503220042 28 135 0.0 0.0 0.00 0.00 0.00 71 1011.0
20260503215541 28 135 0.0 0.0 0.00 0.00 0.00 71 1011.0
20260503215040 28 135 0.0 0.0 0.00 0.00 0.00 71 1010.9
20260503214539 28 135 0.0 0.0 0.00 0.00 0.00 71 1010.9
20260503213543 28 135 0.0 0.0 0.00 0.00 0.00 71 1010.8
20260503213036 28 135 0.0 0.0 0.00 0.00 0.00 71 1010.9
20260503212535 28 135 0.0 0.0 0.00 0.00 0.00 71 1011.0
20260503212034 28 135 0.0 0.0 0.00 0.00 0.00 71 1011.0
20260503211046 28 157 0.0 0.0 0.00 0.00 0.00 71 1011.0
20260503210531 28 135 0.0 0.0 0.00 0.00 0.00 71 1011.0
20260503205529 28 135 0.0 0.0 0.00 0.00 0.00 71 1010.9